Lid_Strength_Index
5 7 8 7 6 6 7 8 8 7 5 7 7 7 6 4 5 4 4 4 3 3 2 1 1 0 0 0 -0 -1 0 0 0 1 1 1 1 1 0 -0 -1 -0 -1 -1
6 8 6 5 6 7 8 8 8 7 6 6 7 7 6 5 5 4 4 4 3 3 2 2 1 1 0 0 -0 -0 -0 -0 0 1 1 1 1 0 0 -0 -0 -1 -0 -1
8 6 6 6 7 8 7 8 8 8 7 6 7 8 7 5 4 4 4 3 3 3 3 2 2 1 1 0 -0 -0 -1 -1 -0 -0 0 0 0 0 1 1 0 -0 -0 -0
6 5 6 7 8 7 9 6 7 8 8 11 7 11 8 6 6 5 4 4 3 3 2 2 2 1 1 0 -0 -1 -1 -1 -1 -0 0 1 2 2 1 1 0 0 -0 -0
7 7 7 8 7 6 8 6 7 7 8 9 9 10 8 6 7 6 5 4 3 3 2 2 2 1 1 0 0 -0 -1 -1 -1 -1 0 1 1 1 1 1 0 0 -0 -0
6 5 6 6 6 6 5 7 7 7 8 12 9 10 10 8 7 6 5 4 3 3 3 2 1 1 1 0 0 -0 -0 -0 -1 -1 -0 0 1 1 2 1 1 1 1 0
7 7 6 6 7 6 7 8 12 13 13 13 9 10 9 6 6 5 5 4 4 3 3 2 2 2 1 1 1 1 0 0 -0 -0 -0 0 1 1 1 1 1 1 1 1
11 12 8 7 8 9 8 8 12 16 15 12 9 11 9 6 5 5 4 4 4 3 3 3 2 2 2 1 1 1 1 1 0 0 0 -0 0 1 1 1 1 1 1 1
11 11 7 6 6 7 10 11 7 11 10 12 11 9 7 6 6 5 5 5 4 4 3 3 3 2 2 1 1 1 1 1 0 0 0 0 0 0 1 0 0 1 0 0
8 13 8 7 7 7 8 7 12 11 17 17 13 11 11 8 7 6 5 5 4 4 3 3 3 2 2 1 1 0 0 1 0 0 0 0 0 0 0 0 1 1 0 1
8 10 10 8 10 9 9 10 10 10 12 17 18 13 8 8 7 7 6 5 4 4 4 4 3 2 2 2 1 1 1 1 0 0 0 0 1 0 0 1 1 0 0 1
8 10 13 11 7 7 8 9 10 15 16 13 14 14 6 7 6 6 5 4 4 4 4 4 3 3 2 2 2 1 1 1 1 1 0 0 0 1 1 1 1 -0 0 -0
8 13 15 13 9 7 9 9 8 9 10 14 17 14 6 6 6 5 5 5 5 4 4 3 3 3 2 2 2 1 1 1 1 0 1 0 0 1 1 1 0 0 0 0
7 10 13 16 13 12 13 11 10 11 17 15 14 12 9 8 8 7 5 5 5 4 4 3 3 3 3 2 2 1 1 1 1 1 1 1 1 1 1 0 0 0 1 1
9 13 11 10 10 9 10 10 10 11 11 14 12 11 9 7 6 6 5 5 5 4 4 3 3 3 3 3 2 1 1 1 1 1 1 1 0 0 1 1 1 0 0 0
9 13 10 12 10 10 11 10 10 10 10 11 10 10 7 6 5 6 5 5 5 5 4 3 3 3 3 3 2 1 1 1 1 1 1 1 1 0 1 1 1 1 0 0
11 11 13 14 10 11 13 11 10 10 9 10 12 9 6 7 7 6 5 5 5 4 3 3 3 2 2 2 2 2 1 1 1 1 1 1 1 1 1 1 1 2 1 0
11 12 12 14 12 17 10 7 8 9 8 7 7 6 6 6 5 4 4 4 4 4 3 3 2 2 2 1 1 1 1 1 1 1 1 1 1 1 1 1 1 1 1 1
8 10 14 16 15 11 10 9 9 10 10 7 8 7 6 5 4 5 3 3 3 3 3 2 2 2 2 2 2 2 3 3 2 2 1 1 1 1 1 1 1 1 1 2
8 9 13 14 18 16 12 8 6 6 12 7 6 6 6 5 9 6 4 3 3 2 2 2 2 2 3 3 3 4 4 4 4 3 2 1 1 1 2 1 1 1 1 1
13 13 15 14 15 12 8 7 6 13 13 7 6 5 5 7 5 4 3 3 2 2 2 2 2 3 4 3 4 5 5 5 5 4 3 3 2 1 1 1 1 1 1 1
14 14 14 13 16 17 6 7 10 8 5 5 5 5 5 4 4 4 4 3 3 3 3 4 5 5 4 4 4 5 6 5 5 5 5 5 4 4 4 2 2 2 2 2
14 11 14 12 12 7 6 6 4 4 5 4 4 4 4 5 5 4 4 4 4 4 5 5 5 5 4 4 5 5 5 5 6 6 6 6 6 5 4 5 4 3 2 3
8 7 9 10 8 7 5 4 4 3 4 3 3 4 4 5 5 5 5 5 6 6 6 5 6 7 6 5 5 6 6 5 7 7 7 7 6 6 5 5 6 6 5 4
8 7 8 8 7 6 5 4 4 3 3 4 4 4 5 5 5 6 6 7 7 7 6 7 8 7 8 7 6 6 7 7 7 7 7 7 7 7 7 6 5 6 5 6
6 8 9 10 6 6 6 4 3 4 4 4 5 5 5 5 7 7 8 7 8 8 9 8 9 9 9 9 8 8 8 8 8 8 8 8 8 8 9 8 8 8 8 8